Flag for Belgium Weather past 2 weeks in Mons, Belgium

Now
36 °F

Partly sunny.


Feels Like: 31 °F
Forecast: 36 / 44 °F
Wind: 6 mph from Southwest

Location: Chievres

Current Time: Jan 25, 2015 at 12:15:02 PM

Latest Report: Jan 25, 2015 at 11:25 AM


Visibility: 5 mi

Pressure: 30.54 "Hg

Humidity: 93%

Dew point: 34 °F

Location of MonsLocation

Historic Weather in Mons — Graph

°F

Mons temperature yesterday

Maximum temperature yesterday: 41 °F (at 1:25 PM)
Minimum temperature yesterday: 30 °F (at 12:03 AM)
Average temperature yesterday: 34 °F

Past Weeks' High & Low Weather Summary

 TemperatureHumidityPressure
High54 °F (Jan 10, 10:25 AM)100% (Jan 17, 12:25 AM)30.54 "Hg (Jan 17, 12:25 AM)
Low27 °F (Jan 22, 3:25 AM)61% (Jan 11, 1:25 PM)29.36 "Hg (Jan 15, 1:55 PM)
Average38 °F88%29.95 "Hg
* Reported Jan 10 10:25 AM — Jan 25 10:55 AM, Mons, Weather by CustomWeather, © 2014

Note: Actual official high and low records may vary slightly from our data, if they occured in-between our weather recording intervals... More about our weather records

Advertising

Mons weather history for previous 24 hours

 ConditionsComfort  
Time TempWeatherWind HumidityBarometerVisibility
10:55 AM
Jan 25
36 °FPartly sunny.3 mph93%30.54 "Hg6 mi
10:25 AM36 °FPartly sunny.5 mph93%30.51 "Hg5 mi
9:25 AM34 °FPartly sunny.5 mph93%30.51 "Hg4 mi
8:25 AM34 °FPassing clouds.6 mph93%30.48 "Hg3 mi
7:25 AM34 °FPassing clouds.5 mph93%30.48 "Hg4 mi
6:25 AM34 °FPartly cloudy.5 mph93%30.48 "Hg4 mi
5:25 AM32 °FPassing clouds.3 mph100%30.42 "Hg4 mi
5:04 AM34 °FPassing clouds.5 mph93%30.45 "Hg5 mi
4:25 AM32 °FPassing clouds.6 mph100%30.39 "Hg5 mi
3:25 AM34 °FPassing clouds.6 mph93%30.42 "Hg6 mi
2:25 AM34 °FPassing clouds.6 mph93%30.42 "HgN/A
1:25 AM32 °FPassing clouds.7 mph93%30.45 "Hg6 mi
12:25 AM32 °FPassing clouds.6 mph93%30.36 "Hg6 mi
11:25 PM
Jan 24
32 °FChilly.5 mph93%30.33 "HgN/A
10:25 PM34 °FChilly.5 mph87%30.33 "HgN/A
9:25 PM34 °FPassing clouds.6 mph87%30.30 "HgN/A
8:25 PM34 °FPassing clouds.7 mph87%30.30 "HgN/A
7:25 PM36 °FPassing clouds.5 mph87%30.27 "HgN/A
6:25 PM37 °FPassing clouds.6 mph81%30.27 "HgN/A
5:25 PM37 °FPassing clouds.9 mph81%30.30 "HgN/A
4:25 PM39 °FChilly.12 mph75%30.21 "HgN/A
3:25 PM41 °FQuite cool.17 mph70%30.30 "HgN/A
2:25 PM41 °FScattered clouds.16 mph76%30.15 "HgN/A
1:25 PM41 °FPassing clouds.13 mph81%30.24 "HgN/A
12:25 PM37 °FPartly sunny.9 mph93%30.24 "HgN/A
Weather by CustomWeather, © 2014

See weather overviewHow to use our weather pages